Temperature
26 27 27 28 29 29 29 29 29 29 30 29 29 29 30 28 27 26 25 24 23 22 20 19 18 17 17 17 17 17 17 17 17 17 17 17 17 17 17 17 17 17 17 17
26 27 28 29 28 28 28 28 29 29 29 29 29 29 29 28 27 26 25 24 23 22 20 19 18 17 17 17 17 17 17 17 17 17 17 17 17 17 17 17 17 17 17 17
27 28 29 28 27 27 28 28 28 28 29 29 29 29 29 28 26 25 25 24 23 22 20 19 18 18 17 17 17 17 17 17 17 17 17 16 16 17 16 16 16 16 16 16
27 28 27 27 27 27 28 29 28 28 28 29 28 28 29 29 27 27 25 24 23 22 21 19 18 18 17 17 17 17 17 17 17 17 17 17 17 16 17 17 16 16 16 16
27 28 27 27 28 28 28 28 28 28 28 28 29 28 29 29 28 28 27 25 24 22 21 20 19 18 18 17 17 17 17 17 17 17 17 17 16 16 16 16 16 16 16 16
28 28 28 28 29 28 28 28 28 28 28 27 28 28 28 30 29 28 27 25 24 22 21 20 19 18 17 17 17 17 17 17 17 17 17 17 16 16 16 16 16 16 16 16
27 28 28 28 28 28 28 27 27 27 27 27 28 27 28 30 29 28 27 26 24 22 21 20 19 18 17 17 17 17 17 17 17 17 16 17 16 16 16 16 16 16 16 16
26 27 28 28 28 28 28 28 27 26 27 28 27 27 29 29 28 27 26 25 24 22 21 20 19 18 18 17 17 17 16 17 17 16 16 16 16 16 16 16 16 16 16 16
27 27 28 28 28 28 28 28 29 28 27 27 28 28 29 29 28 27 26 25 24 23 21 20 20 19 18 17 17 17 16 16 17 17 16 16 16 16 16 16 16 16 16 16
28 27 27 27 28 28 28 28 28 27 26 26 27 28 28 28 28 28 27 26 24 23 22 21 20 19 18 18 17 17 16 16 16 16 16 16 16 16 16 16 16 16 16 16
28 26 27 27 27 27 27 27 27 27 27 26 26 27 29 28 28 27 27 26 24 23 22 21 20 19 18 18 17 17 17 16 16 16 16 16 16 16 16 16 16 16 16 16
27 27 27 27 27 27 27 27 27 26 26 26 26 27 28 28 27 27 27 25 24 23 22 21 20 19 18 18 17 17 17 17 16 16 16 16 16 16 16 16 16 16 16 16
26 25 25 26 26 26 26 27 27 27 26 26 26 27 28 27 27 26 26 25 24 23 22 21 20 19 18 18 17 17 17 17 16 16 16 16 16 16 16 16 16 16 16 16
25 25 25 25 26 26 26 26 26 26 26 26 26 27 28 27 26 26 25 24 24 22 22 21 20 19 18 18 18 17 17 17 17 16 16 16 16 17 16 16 16 16 16 16
25 25 25 26 26 26 26 26 26 26 26 26 26 27 27 26 25 25 24 24 23 23 22 21 20 19 18 18 18 17 17 17 16 16 16 16 17 17 16 16 16 16 16 16
24 24 25 25 25 25 25 25 25 25 25 26 26 26 26 25 24 24 23 23 23 23 22 21 20 19 19 18 18 18 17 17 17 16 17 17 17 16 16 16 16 16 16 15
24 23 23 24 25 24 24 25 25 25 25 25 25 25 24 24 23 22 22 22 22 22 21 21 20 20 19 18 18 18 18 17 17 17 17 16 16 16 16 16 16 16 16 16
22 22 23 24 23 22 24 24 24 24 24 24 24 24 23 22 21 21 21 21 21 20 20 20 20 19 19 18 18 18 18 17 17 17 17 16 16 16 16 16 16 16 16 16
22 22 22 23 22 23 23 23 22 22 22 23 22 22 22 21 21 22 20 19 19 19 19 19 19 20 19 19 18 18 18 18 17 17 17 17 17 17 16 16 16 16 16 16
21 21 22 21 21 22 22 22 21 22 21 21 21 21 21 21 22 22 19 18 18 18 18 18 19 19 19 19 18 18 18 18 18 18 17 17 17 17 17 17 17 16 16 16
21 20 21 21 21 21 21 21 21 20 20 19 19 19 20 20 20 18 17 17 17 17 17 18 18 19 19 18 18 18 18 18 18 18 17 17 17 17 17 17 16 16 16 16
21 20 20 20 20 20 20 20 20 19 18 18 18 18 18 18 17 17 16 16 16 16 17 17 18 18 18 18 18 18 18 18 18 17 17 17 17 17 17 16 16 16 16 16
20 20 20 20 19 19 18 18 17 16 17 16 17 16 17 17 16 16 15 15 15 15 16 16 17 17 17 17 17 17 17 17 17 17 17 16 16 16 16 16 16 15 15 15
19 19 19 18 18 18 17 16 16 16 16 16 15 15 15 15 15 15 14 14 14 14 14 15 15 16 16 16 17 17 17 17 17 16 16 16 16 16 16 15 15 15 15 15
18 18 18 18 18 17 16 15 15 15 15 14 14 14 14 14 14 13 13 13 13 13 13 14 14 15 15 15 16 16 16 16 16 16 16 16 15 15 15 15 15 15 15 15
18 17 17 17 17 17 15 14 14 14 14 13 13 13 13 13 12 12 12 12 12 12 12 13 13 13 13 14 14 15 15 15 15 15 15 15 15 14 14 14 14 14 14 14
Wind_Speed
13 13 15 13 12 8 6 8 8 6 3 7 10 10 8 6 8 9 9 11 12 12 13 13 14 15 15 15 16 16 16 15 13 11 11 10 9 8 8 8 9 8 8 9
12 16 14 9 9 9 10 10 9 5 3 6 9 10 7 6 8 8 9 11 11 11 12 13 14 15 16 16 16 16 16 15 15 12 10 9 8 7 7 7 8 9 9 9
17 9 11 11 11 11 12 11 9 7 5 7 8 10 7 6 7 8 9 10 11 12 14 14 15 16 16 16 17 15 16 15 15 14 10 9 7 7 8 9 8 9 9 9
15 9 9 13 13 12 11 8 8 8 9 6 5 8 5 5 7 9 10 11 12 13 13 14 15 16 16 16 15 15 15 15 14 14 12 13 11 11 10 9 8 8 9 9
12 12 12 14 13 12 9 5 7 8 9 10 8 9 4 4 6 7 9 11 12 13 14 14 15 15 15 15 14 14 15 14 14 14 14 13 12 10 9 9 9 9 8 9
11 8 10 11 10 10 7 6 7 8 9 10 6 7 6 3 3 4 6 8 11 12 13 13 13 14 14 14 14 14 15 14 14 14 14 14 14 12 12 11 11 9 8 8
13 13 11 9 10 11 10 9 8 8 8 7 2 6 5 2 2 3 4 7 10 12 13 14 15 15 15 15 15 15 15 15 15 15 14 14 14 14 13 12 11 10 8 8
12 12 12 11 12 10 13 13 10 7 7 5 4 6 3 1 1 1 3 6 9 12 13 14 16 15 15 16 16 16 15 15 15 15 14 14 14 12 11 12 10 10 8 8
9 8 8 8 10 10 10 12 10 9 10 9 6 5 5 2 2 2 4 6 9 11 13 15 15 16 15 16 16 16 16 15 16 16 14 14 13 12 11 11 10 9 8 9
7 6 8 7 8 9 10 9 7 9 9 10 7 7 3 1 1 1 3 6 8 10 13 14 14 15 15 15 15 16 16 16 16 15 14 13 13 12 11 11 11 10 10 10
9 8 8 9 10 10 9 10 9 9 9 10 9 3 2 2 3 2 1 4 7 11 13 14 14 15 15 15 15 15 15 15 15 15 14 14 13 13 12 11 12 11 11 11
8 8 8 8 4 3 8 9 10 9 9 10 11 5 4 3 2 2 1 2 5 9 12 14 15 15 15 15 15 15 16 16 15 15 15 14 14 13 13 12 12 12 12 12
6 6 8 9 8 7 8 9 10 9 9 10 12 6 5 2 2 2 2 1 4 8 11 13 14 15 15 16 15 15 16 16 15 15 15 15 15 14 14 13 13 13 13 12
5 7 10 10 6 7 9 9 10 11 11 12 12 10 5 3 4 3 2 0 4 8 10 12 13 14 15 15 16 16 16 16 16 15 15 15 15 15 14 14 14 14 14 13
5 8 10 9 7 8 10 11 11 13 14 14 12 10 7 5 5 4 3 1 3 6 9 11 13 14 15 16 16 16 16 16 16 16 16 16 15 15 14 14 14 14 14 14
3 6 7 9 9 10 11 12 12 12 13 13 13 11 4 4 3 3 3 2 2 5 7 9 12 13 15 16 17 17 17 17 17 17 17 16 16 15 15 15 15 14 14 14
5 5 7 9 7 8 12 10 10 10 10 11 12 7 4 4 4 4 4 3 3 3 5 7 10 12 13 16 17 18 18 17 17 17 17 17 16 16 16 16 15 15 15 14
5 6 6 7 6 11 3 1 3 6 6 7 6 4 3 4 4 4 3 4 4 4 4 5 8 10 12 14 16 17 17 18 18 18 17 17 17 17 16 16 16 15 14 14
5 6 6 7 9 8 3 1 2 5 6 3 3 3 3 3 4 2 2 4 5 6 6 6 7 9 10 13 15 17 17 18 18 18 18 18 18 17 17 16 16 15 14 14
5 6 7 7 9 8 1 2 2 5 5 2 3 3 4 4 5 1 6 8 8 7 6 5 6 8 9 11 13 16 17 18 18 18 17 17 17 17 17 17 16 14 13 13
7 6 9 10 9 4 3 2 3 5 1 4 5 5 5 4 4 5 7 8 8 7 7 5 4 6 7 9 12 14 16 16 16 15 15 15 16 16 16 15 14 13 13 12
6 5 6 7 8 4 3 1 2 3 5 5 5 5 5 4 3 4 6 7 8 8 7 4 2 3 4 7 10 13 14 13 13 13 14 14 15 14 13 13 13 13 13 13
3 2 2 2 0 4 3 3 4 4 4 5 5 5 4 3 3 4 5 6 7 8 7 5 2 1 1 4 7 9 10 11 12 12 13 12 13 12 11 12 12 12 11 11
2 1 2 2 2 1 2 3 4 4 4 5 4 3 3 3 4 4 5 6 7 8 7 6 5 5 4 2 3 4 6 8 10 11 10 10 10 10 10 8 9 9 10 10
0 2 2 3 1 1 2 4 5 4 5 5 6 5 4 4 5 5 6 6 7 7 7 7 7 7 6 5 4 3 4 7 8 8 8 8 8 8 7 6 4 6 4 4
2 2 3 1 1 1 2 4 5 5 6 6 7 8 8 8 8 8 7 7 8 8 8 9 9 9 8 8 8 6 4 6 7 7 6 6 6 6 7 7 5 8 6 8
Wind_Direction
192 210 214 213 223 254 262 257 255 258 261 260 261 268 265 223 220 220 208 199 197 195 187 183 183 183 180 180 180 181 183 183 179 177 180 182 184 185 182 180 180 185 190 190
194 219 222 225 225 237 244 251 254 252 244 265 273 273 263 228 225 223 212 202 197 188 181 181 183 181 182 182 184 183 184 184 184 183 182 182 177 182 181 178 177 187 190 191
209 212 207 213 217 228 238 246 257 273 278 248 269 258 227 209 214 217 215 207 198 193 187 183 183 182 182 184 185 184 182 184 186 182 177 174 170 178 182 183 182 185 185 189
221 213 206 215 221 227 237 242 260 266 269 261 262 278 234 206 213 215 214 208 201 194 189 185 185 183 185 186 184 182 180 183 184 181 181 181 186 188 185 180 178 178 185 186
208 210 212 221 223 224 244 250 253 260 263 268 246 269 255 198 231 218 209 207 201 193 190 188 187 185 184 182 183 183 180 181 183 185 186 188 190 188 176 173 168 178 180 185
219 205 221 226 222 222 225 230 240 245 250 251 255 267 273 243 255 237 203 199 197 191 189 187 183 180 179 178 179 179 179 182 184 186 189 190 186 180 174 175 173 180 178 182
216 216 215 221 218 206 215 230 233 230 231 247 209 258 274 313 301 270 222 195 188 187 186 184 182 179 177 178 179 177 178 182 184 185 187 188 185 181 180 180 180 181 178 181
203 204 200 207 219 212 216 230 244 257 256 254 213 250 276 354 315 259 204 189 184 186 185 185 183 180 180 178 177 176 179 181 182 184 185 186 185 185 184 186 181 183 184 181
207 199 177 200 214 224 215 230 253 264 269 271 252 248 257 234 217 193 178 180 185 186 185 186 184 182 182 179 179 179 179 182 184 184 182 183 186 189 183 177 181 181 181 176
220 214 184 184 200 216 238 234 233 247 261 264 256 250 259 236 325 185 186 186 184 184 182 183 183 181 181 180 180 181 181 183 183 182 182 183 186 186 179 179 184 181 180 176
220 222 194 193 211 209 205 220 237 249 259 268 271 263 62 356 344 340 201 188 184 185 183 180 181 180 180 179 179 180 180 180 182 182 182 181 183 183 182 184 183 180 179 177
209 226 223 207 192 257 228 232 231 243 249 256 271 271 83 46 20 8 22 156 179 185 184 180 178 177 179 181 181 182 182 182 182 180 180 181 181 181 184 187 184 181 180 182
185 215 219 204 195 201 221 227 237 246 257 255 258 253 123 88 15 7 2 141 170 181 182 179 177 179 181 183 183 184 186 185 184 181 181 181 181 183 187 187 184 183 182 186
207 222 241 244 237 211 222 228 231 239 249 254 255 265 260 301 321 333 346 229 178 178 181 183 181 184 185 186 186 186 187 185 183 183 184 184 185 184 185 185 183 185 187 189
217 232 241 256 254 244 243 241 238 242 254 263 269 270 287 317 320 327 326 278 193 186 188 190 190 188 189 189 189 188 187 186 185 186 188 188 186 185 185 185 186 188 192 194
221 239 238 243 243 245 248 247 247 250 256 261 266 268 304 327 330 330 329 309 230 206 200 198 197 194 195 193 191 189 189 187 188 191 192 189 187 188 190 188 188 190 193 196
203 222 236 241 235 247 243 241 244 247 254 264 267 274 296 302 322 332 330 316 301 256 222 211 206 202 200 198 193 192 190 187 190 194 195 192 190 190 191 192 190 192 195 196
213 229 237 245 234 238 227 78 272 268 272 279 280 283 291 307 310 309 317 322 319 311 271 234 220 211 203 199 195 194 191 190 191 195 197 194 193 192 191 193 194 195 197 198
211 221 237 238 238 242 204 196 273 270 271 306 298 300 313 314 278 248 31 357 333 319 297 268 238 221 208 200 195 192 192 192 194 196 197 195 194 193 193 195 196 196 197 200
188 216 233 237 244 242 164 74 329 274 246 53 340 324 316 293 269 336 10 346 334 323 309 282 249 224 207 199 193 193 194 193 197 198 197 195 194 195 195 196 196 196 199 202
194 208 226 235 241 244 57 8 275 248 347 10 337 328 316 316 317 329 335 336 335 330 322 302 256 223 206 192 187 193 196 197 198 196 194 193 192 194 194 193 193 193 196 200
227 222 224 231 236 229 51 328 309 349 353 334 329 329 322 317 317 333 343 345 347 347 346 339 290 226 200 186 186 192 197 197 193 192 192 192 191 193 192 191 192 193 194 196
236 258 251 249 293 62 42 25 4 338 324 325 322 324 325 330 344 357 3 3 2 0 4 6 20 73 132 174 182 192 194 188 184 187 190 189 188 191 189 189 191 193 196 203
182 226 218 214 162 87 34 22 5 355 344 342 343 347 2 12 14 21 22 17 16 14 15 23 41 54 56 86 153 180 179 175 175 177 179 179 179 179 180 182 188 193 195 201
6 203 221 221 171 143 53 21 12 15 24 27 33 42 52 55 50 50 44 35 32 29 30 42 52 55 52 53 69 98 131 149 157 160 162 164 167 168 166 163 163 186 189 200
293 288 273 261 30 346 64 40 33 44 43 43 52 59 60 65 66 63 59 52 49 45 44 53 56 57 56 58 59 60 89 124 136 140 144 151 155 155 157 153 134 71 69 72
Height
1473 1473 1468 1464 1463 1463 1464 1465 1465 1461 1459 1463 1460 1458 1456 1460 1464 1465 1468 1471 1474 1477 1481 1484 1486 1489 1493 1497 1501 1505 1509 1514 1518 1522 1526 1531 1535 1539 1543 1546 1549 1552 1554 1557
1471 1468 1461 1461 1464 1466 1467 1468 1464 1460 1459 1461 1459 1456 1453 1457 1460 1462 1465 1468 1471 1475 1479 1481 1483 1486 1490 1494 1497 1502 1506 1511 1515 1519 1524 1528 1533 1537 1540 1544 1547 1549 1552 1555
1462 1458 1458 1463 1465 1467 1465 1465 1462 1462 1459 1456 1458 1456 1452 1454 1458 1461 1463 1466 1469 1472 1475 1478 1480 1484 1488 1491 1495 1499 1503 1508 1512 1517 1522 1526 1530 1534 1538 1541 1544 1547 1550 1553
1457 1455 1459 1461 1462 1463 1464 1458 1460 1461 1463 1457 1459 1462 1450 1449 1453 1456 1459 1462 1465 1469 1472 1476 1478 1482 1485 1489 1493 1497 1501 1505 1510 1514 1518 1523 1527 1531 1534 1538 1541 1545 1548 1551
1454 1453 1457 1459 1457 1458 1457 1456 1458 1458 1459 1459 1455 1460 1448 1445 1449 1449 1453 1458 1462 1466 1470 1473 1476 1479 1483 1487 1490 1494 1498 1503 1507 1512 1516 1520 1524 1528 1532 1536 1539 1543 1546 1548
1447 1451 1452 1451 1451 1454 1455 1458 1458 1456 1455 1466 1455 1460 1454 1441 1444 1444 1449 1454 1459 1463 1467 1471 1474 1478 1481 1484 1488 1491 1495 1500 1504 1509 1513 1517 1521 1525 1529 1533 1536 1540 1543 1546
1451 1448 1448 1449 1451 1452 1455 1460 1467 1469 1467 1463 1451 1457 1450 1438 1440 1444 1447 1451 1456 1460 1465 1469 1472 1475 1479 1482 1486 1489 1493 1497 1502 1506 1510 1514 1519 1523 1526 1530 1534 1538 1541 1544
1452 1451 1444 1445 1447 1449 1451 1453 1466 1473 1468 1456 1453 1455 1442 1437 1442 1445 1447 1450 1454 1458 1462 1466 1469 1473 1477 1480 1483 1487 1491 1495 1499 1503 1508 1512 1516 1521 1525 1528 1532 1535 1539 1542
1443 1446 1440 1442 1443 1444 1449 1449 1443 1453 1454 1459 1451 1445 1439 1437 1440 1443 1446 1449 1452 1455 1459 1463 1467 1471 1475 1478 1482 1485 1489 1493 1497 1501 1505 1509 1514 1518 1522 1525 1529 1533 1537 1540
1436 1445 1440 1442 1443 1444 1442 1442 1449 1455 1467 1467 1455 1449 1443 1439 1438 1440 1443 1446 1450 1454 1457 1461 1465 1469 1473 1477 1480 1484 1487 1491 1495 1499 1503 1507 1511 1516 1520 1523 1527 1530 1534 1537
1434 1443 1442 1442 1444 1442 1446 1447 1447 1447 1450 1461 1463 1452 1434 1437 1438 1439 1441 1445 1448 1452 1455 1459 1463 1468 1471 1475 1479 1482 1486 1489 1493 1497 1501 1505 1509 1513 1517 1521 1524 1528 1531 1535
1435 1437 1441 1439 1439 1440 1440 1441 1444 1455 1456 1453 1455 1449 1432 1436 1439 1441 1442 1445 1447 1450 1454 1458 1462 1466 1469 1473 1477 1480 1484 1487 1491 1495 1499 1503 1507 1511 1515 1519 1522 1526 1529 1533
1436 1441 1449 1447 1447 1444 1442 1440 1441 1444 1448 1451 1454 1447 1433 1436 1439 1441 1443 1445 1447 1450 1453 1456 1460 1464 1467 1471 1474 1478 1482 1485 1489 1493 1497 1501 1505 1508 1512 1516 1520 1524 1527 1531
1437 1439 1442 1445 1440 1437 1442 1441 1441 1444 1448 1447 1444 1439 1433 1435 1439 1441 1443 1445 1447 1449 1452 1455 1458 1462 1465 1469 1472 1476 1480 1483 1487 1491 1495 1499 1502 1506 1510 1514 1517 1521 1524 1528
1437 1438 1436 1433 1432 1434 1437 1439 1440 1441 1440 1442 1438 1436 1435 1437 1440 1442 1444 1445 1446 1448 1451 1453 1456 1459 1463 1466 1469 1473 1477 1481 1485 1488 1492 1496 1500 1503 1507 1511 1514 1518 1522 1525
1438 1439 1437 1439 1434 1435 1438 1437 1437 1438 1437 1437 1436 1436 1436 1439 1441 1443 1444 1444 1445 1447 1449 1451 1454 1457 1459 1462 1466 1470 1474 1478 1481 1485 1489 1493 1497 1501 1504 1508 1511 1515 1518 1522
1436 1440 1442 1439 1435 1439 1442 1435 1436 1436 1434 1436 1437 1437 1438 1440 1442 1444 1445 1445 1445 1445 1447 1449 1451 1453 1456 1459 1462 1466 1470 1474 1478 1482 1486 1490 1493 1497 1500 1504 1508 1511 1514 1518
1439 1441 1440 1438 1443 1453 1435 1432 1434 1436 1436 1435 1436 1438 1440 1443 1444 1444 1444 1445 1444 1445 1445 1446 1447 1450 1452 1455 1458 1462 1466 1470 1473 1477 1482 1486 1489 1493 1496 1500 1503 1507 1510 1513
1440 1441 1441 1441 1443 1439 1436 1436 1438 1440 1439 1438 1439 1440 1442 1443 1442 1441 1443 1444 1444 1443 1443 1443 1444 1446 1448 1451 1454 1458 1462 1465 1469 1473 1477 1481 1484 1488 1492 1495 1499 1502 1506 1509
1441 1441 1442 1443 1446 1445 1439 1438 1440 1441 1441 1441 1442 1442 1442 1441 1438 1439 1443 1443 1442 1441 1440 1440 1441 1442 1444 1446 1450 1453 1457 1461 1464 1468 1473 1476 1480 1483 1487 1490 1494 1498 1502 1505
1440 1443 1442 1443 1443 1437 1439 1440 1441 1446 1444 1444 1443 1443 1442 1442 1443 1444 1442 1441 1440 1439 1438 1437 1437 1439 1440 1442 1445 1448 1452 1456 1460 1465 1469 1472 1475 1479 1482 1486 1490 1494 1497 1500
1437 1439 1441 1441 1444 1445 1441 1441 1443 1445 1445 1445 1444 1443 1442 1442 1442 1442 1441 1440 1439 1437 1436 1435 1435 1436 1437 1439 1441 1444 1448 1452 1457 1461 1464 1468 1471 1475 1479 1482 1485 1488 1492 1495
1436 1438 1438 1440 1443 1444 1444 1445 1447 1447 1446 1445 1444 1443 1442 1441 1441 1441 1440 1439 1437 1436 1435 1434 1434 1434 1435 1436 1439 1442 1445 1449 1452 1456 1460 1463 1467 1471 1474 1477 1480 1484 1486 1490
1439 1441 1440 1441 1442 1445 1446 1447 1447 1446 1446 1445 1443 1442 1441 1441 1440 1440 1439 1438 1437 1436 1434 1434 1433 1433 1434 1435 1437 1439 1443 1445 1449 1452 1456 1460 1463 1467 1470 1473 1476 1479 1482 1485
1440 1441 1440 1441 1443 1445 1447 1447 1447 1446 1445 1444 1442 1441 1441 1440 1440 1440 1440 1439 1438 1437 1435 1434 1434 1434 1434 1435 1436 1438 1440 1443 1446 1450 1453 1457 1460 1464 1466 1469 1472 1475 1478 1480
1443 1443 1442 1442 1445 1446 1448 1448 1448 1447 1446 1445 1443 1442 1442 1441 1442 1442 1441 1441 1440 1439 1438 1437 1436 1436 1436 1436 1436 1438 1440 1442 1445 1448 1451 1455 1458 1461 1464 1466 1469 1471 1474 1477